This demonstration page uses our WeatherBlox Daily Observations layout. Learn more.

Hourly Observations for December 18, 2019

Temp ( °F °C ) Dew Point ( °F °C ) Humidity (%) Winds ( mph kmh ) Pressure ( in mb ) Visibility ( mi km ) Precip ( " mm )
12:54 am 00:54 Clear 16 -8.9 12 -11.1 84 84 Calm 30.32 1027 10 16.0934 0 0
1:54 am 01:54 Clear 14 -10 11 -11.7 88 88 N 7 11 30.33 1027 10 16.0934 0 0
2:54 am 02:54 Clear 14 -10 10 -12.2 84 84 Calm 30.34 1027 10 16.0934 0 0
3:54 am 03:54 Clear 15 -9.4 11 -11.7 84 84 Calm 30.32 1027 10 16.0934 0 0
4:54 am 04:54 Clear 15 -9.4 11 -11.7 84 84 Calm 30.32 1027 10 16.0934 0 0
5:54 am 05:54 Clear 12 -11.1 9 -12.8 87 87 SSW 3 6 30.33 1027 10 16.0934 0 0
6:54 am 06:54 Clear 15 -9.4 11 -11.7 84 84 S 3 6 30.32 1027 10 16.0934 0 0
7:54 am 07:54 Sunny 13 -10.6 9 -12.8 84 84 S 7 11 30.32 1027 10 16.0934 0 0
8:54 am 08:54 Sunny 18 -7.8 15 -9.4 88 88 S 5 7 30.32 1027 10 16.0934 0 0
9:54 am 09:54 Sunny 23 -5 19 -7.2 85 85 S 9 15 30.32 1027 10 16.0934 0 0
10:54 am 10:54 Sunny 32 0 23 -5 69 69 S 13 20 30.29 1026 10 16.0934 0 0
11:54 am 11:54 Sunny 36 2.2 24 -4.4 62 62 SSW 12 19 30.26 1025 10 16.0934 0 0
12:54 pm 12:54 Sunny 39 3.9 25 -3.9 57 57 S 15 24 30.21 1023 10 16.0934 0 0
1:54 pm 13:54 Sunny 40 4.4 26 -3.3 58 58 SSW 14 22 30.18 1022 10 16.0934 0 0
2:54 pm 14:54 Sunny 43 6.1 27 -2.8 53 53 S 12 19 30.16 1021 10 16.0934 0 0
3:54 pm 15:54 Sunny 43 6.1 27 -2.8 53 53 S 13 20 30.15 1021 10 16.0934 0 0
4:54 pm 16:54 Sunny 37 2.8 26 -3.3 65 65 S 9 15 30.16 1021 10 16.0934 0 0
5:54 pm 17:54 Clear 34 1.1 25 -3.9 70 70 SSW 5 7 30.17 1022 10 16.0934 0 0
6:54 pm 18:54 Clear 30 -1.1 24 -4.4 79 79 S 6 9 30.18 1022 10 16.0934 0 0
7:54 pm 19:54 Clear 29 -1.7 23 -5 78 78 S 7 11 30.18 1022 10 16.0934 0 0
8:54 pm 20:54 Clear 32 0 24 -4.4 73 73 SSW 7 11 30.16 1022 10 16.0934 0 0
9:54 pm 21:54 Clear 29 -1.7 22 -5.6 75 75 SSW 5 7 30.16 1021 10 16.0934 0 0
10:54 pm 22:54 Clear 27 -2.8 22 -5.6 81 81 S 6 9 30.15 1021 10 16.0934 0 0
11:54 pm 23:54 Clear 25 -3.9 20 -6.7 81 81 S 6 9 30.14 1021 10 16.0934 0 0

Powered by AerisWeather